Location: Monfort
(47.1967°N, 0.2115°W)
Time: 11:42:49
(UTC+00:00)

Cosmos 44 - Pass Details

Date: 24 October 2020
Orbit: 577 x 784 km, 65.1° (Epoch: 27 November)

Event Time Altitude Azimuth Distance (km) Brightness Sun altitude
Rises 19:17:45 0° 233° (SW) 2,868 7.1 -24.6°
Reaches altitude 10° 19:20:02 10° 240° (WSW) 1,995 6.3 -24.9°
Maximum altitude 19:24:23 46° 314° (NW) 874 4.1 -25.7°
Enters shadow 19:26:01 33° 4° (N) 1,121 4.3 -25.9°
